[[{"header":{"parameterUnit":"m.s-1","parameterCategory":1,"la1":30.2991,"la2":30.254,"lo1":-89.0895,"lo2":-89.0444,"dy":0.0017,"dx":0.0017,"nx":28,"ny":28,"refTime":"2025-04-21T21:00:00:Z","depth":0,"parameterNumber":2,"parameterNumberName":"U-component_of_WINDS"},"data":[0,0,0,0,0,0,0,0,0,0,0,0,0,0,0,0,0,0,0,0,0,0,0,0,0,0,0,0,0,0,0,0,0,0,0,0,0,0,0,0,0,0,0,0,0,0,0,0,0,0,0,0,0,0,0,0,0,0,-0.0811,-0.0811,0,-0.0844,-0.0844,-0.0845,-0.0866,-0.0866,-0.0866,-0.0866,-0.0903,-0.0904,-0.0904,0,0,0,0,0,0,0,0,0,0,0,0,0,-0.0769,-0.0769,-0.0811,-0.0811,-0.0812,-0.0844,-0.0844,-0.0845,-0.0866,-0.0866,-0.0866,-0.0866,-0.0902,-0.0903,-0.0904,0,0,0,0,0,0,0,0,0,0,0,0,0,-0.0793,-0.077,-0.0811,-0.0826,-0.0828,-0.0844,-0.0844,-0.0845,-0.0866,-0.0866,-0.0866,-0.0866,-0.0902,-0.0903,-0.0905,-0.0909,0,0,-0.0909,-0.0909,0,0,0,0,0,0,0,0,-0.0792,-0.0794,-0.0823,-0.0825,-0.0827,-0.0851,-0.0843,-0.0866,-0.0866,-0.0851,-0.0866,-0.0866,-0.0885,-0.0888,-0.0894,-0.0911,-0.0912,-0.0909,-0.0909,-0.091,-0.091,0,0,0,0,0,0,0,-0.079,-0.0793,-0.0824,-0.0824,-0.0826,-0.0832,-0.0836,-0.0847,-0.0867,-0.0853,-0.0854,-0.0858,-0.0887,-0.0893,-0.0895,-0.0913,-0.0909,-0.091,-0.0911,-0.0911,-0.0935,-0.0935,0,0,0,0,0,0,-0.0785,-0.0792,-0.0823,-0.0825,-0.0809,-0.0833,-0.0837,-0.0843,-0.0867,-0.0871,-0.0858,-0.0859,-0.089,-0.0894,-0.0896,-0.0904,-0.091,-0.0911,-0.0912,-0.0936,-0.0935,-0.0935,0,0,0,0,0,0,-0.0784,-0.0788,-0.0822,-0.0809,-0.0813,-0.0833,-0.084,-0.0844,-0.085,-0.0871,-0.0875,-0.086,-0.0891,-0.0895,-0.0906,-0.0905,-0.0912,-0.0913,-0.0936,-0.0936,-0.0935,-0.0917,0,0,0,0,0,0,-0.0783,-0.0787,-0.0788,-0.0808,-0.0814,-0.0829,-0.084,-0.0844,-0.0852,-0.0853,-0.0874,-0.0878,-0.0891,-0.0904,-0.0907,-0.0907,-0.0914,-0.0936,-0.0936,-0.0935,-0.0918,-0.0917,-0.0915,0,0,0,0,0,-0.0781,-0.0782,-0.0788,-0.0792,-0.0816,-0.0829,-0.0832,-0.0847,-0.0851,-0.0853,-0.0867,-0.0877,-0.0905,-0.0905,-0.0908,-0.0909,-0.0936,-0.0936,-0.0935,-0.0919,-0.0917,-0.0915,0,0,0,0,0,0,-0.0763,-0.0785,-0.0792,-0.08,-0.0812,-0.0833,-0.0835,-0.0844,-0.0857,-0.0858,-0.0876,-0.0881,-0.089,-0.0901,-0.09,-0.0915,-0.0922,-0.0922,-0.0908,-0.0906,-0.0905,-0.0902,-0.0915,0,0,0,0,0,-0.0759,-0.0767,-0.0787,-0.0792,-0.0798,-0.0815,-0.0822,-0.0832,-0.0846,-0.0852,-0.0866,-0.088,-0.0892,-0.09,-0.0912,-0.092,-0.0925,-0.0922,-0.0921,-0.0919,-0.092,-0.0926,-0.0925,-0.0934,-0.0934,-0.0934,0,0,-0.0752,-0.0766,-0.077,-0.0788,-0.0799,-0.0808,-0.082,-0.0829,-0.0836,-0.0853,-0.0865,-0.0876,-0.0893,-0.0902,-0.0907,-0.0911,-0.0918,-0.0919,-0.0918,-0.0919,-0.0925,-0.0925,-0.0924,-0.0934,-0.0934,-0.0934,0,0,-0.0745,-0.0755,-0.0761,-0.0771,-0.0788,-0.0799,-0.0801,-0.082,-0.0828,-0.0839,-0.0853,-0.0862,-0.0882,-0.0894,-0.0902,-0.09,-0.091,-0.0903,-0.0896,-0.0902,-0.0901,-0.09,-0.09,-0.09,-0.0903,-0.0903,-0.0903,0,-0.0735,-0.0748,-0.0763,-0.0771,-0.0779,-0.0794,-0.0801,-0.0811,-0.083,-0.0836,-0.084,-0.0865,-0.0878,-0.0891,-0.089,-0.0897,-0.09,-0.0901,-0.09,-0.0899,-0.0899,-0.0899,-0.0899,-0.0902,-0.0903,-0.0903,-0.0903,0,-0.0735,-0.0744,-0.0746,-0.0764,-0.0773,-0.078,-0.0797,-0.0803,-0.0813,-0.0825,-0.0837,-0.0852,-0.0868,-0.0872,-0.0882,-0.0887,-0.0889,-0.0896,-0.0903,-0.0897,-0.0897,-0.0897,-0.0901,-0.0901,-0.0902,-0.0902,0,0,-0.0716,-0.0742,-0.0743,-0.0752,-0.0771,-0.0779,-0.0787,-0.0802,-0.0808,-0.0821,-0.0829,-0.0846,-0.0852,-0.0862,-0.0873,-0.0878,-0.0876,-0.0885,-0.0886,-0.0883,-0.0884,-0.0879,-0.0878,-0.0883,-0.0883,-0.0883,-0.0883,0,-0.0712,-0.0727,-0.0741,-0.0751,-0.076,-0.0775,-0.0782,-0.0796,-0.0807,-0.0817,-0.083,-0.0842,-0.0849,-0.0856,-0.0861,-0.0875,-0.0877,-0.0875,-0.0892,-0.0892,-0.0887,-0.0878,-0.0873,-0.0872,-0.0883,-0.0883,-0.0883,0,-0.0709,-0.0721,-0.0732,-0.0751,-0.0755,-0.0761,-0.0776,-0.0785,-0.0801,-0.0809,-0.082,-0.0832,-0.0842,-0.0848,-0.0864,-0.0863,-0.087,-0.0878,-0.0879,-0.0881,-0.0887,-0.0881,-0.0872,-0.0872,-0.0883,-0.0883,-0.0883,0,-0.0695,-0.0714,-0.0723,-0.073,-0.0752,-0.0756,-0.0766,-0.0781,-0.079,-0.0803,-0.0809,-0.0824,-0.0832,-0.0843,-0.0859,-0.0862,-0.0874,-0.0881,-0.0882,-0.0881,-0.0884,-0.0883,-0.0876,-0.0888,-0.0888,-0.0888,-0.0888,0,-0.069,-0.0696,-0.0717,-0.0723,-0.0731,-0.0747,-0.0754,-0.0766,-0.0779,-0.0788,-0.0803,-0.0811,-0.0831,-0.0842,-0.0855,-0.0866,-0.087,-0.0878,-0.0881,-0.0876,-0.0876,-0.0882,-0.0883,-0.0888,-0.0888,-0.0888,-0.0888,0,-0.0676,-0.069,-0.0701,-0.0721,-0.0726,-0.0731,-0.0749,-0.0755,-0.0767,-0.0778,-0.0782,-0.0801,-0.0815,-0.0832,-0.0851,-0.086,-0.0871,-0.0875,-0.0865,-0.0867,-0.0867,-0.0867,-0.0864,-0.0864,-0.0875,-0.0875,-0.0875,0,-0.0671,-0.0676,-0.0696,-0.0703,-0.0712,-0.0722,-0.073,-0.0747,-0.0755,-0.0774,-0.0778,-0.0793,-0.0805,-0.0827,-0.0844,-0.0859,-0.0864,-0.0862,-0.0867,-0.0863,-0.0865,-0.0865,-0.0866,-0.0861,-0.0861,-0.0861,-0.0861,0,-0.0662,-0.0669,-0.068,-0.0693,-0.0702,-0.0714,-0.0727,-0.0731,-0.0751,-0.0759,-0.0773,-0.0783,-0.0802,-0.0817,-0.0835,-0.0846,-0.0857,-0.0859,-0.086,-0.0856,-0.085,-0.0854,-0.0862,-0.0859,-0.0859,-0.0859,-0.0859,-0.0859,-0.0653,-0.0658,-0.0674,-0.0685,-0.0696,-0.0708,-0.0715,-0.0728,-0.0739,-0.0756,-0.0765,-0.0779,-0.0795,-0.082,-0.083,-0.0842,-0.0846,-0.0848,-0.0848,-0.0848,-0.0847,-0.0847,-0.0845,-0.0846,-0.0846,-0.0846,-0.0846,0,-0.0645,-0.0655,-0.0666,-0.0683,-0.0692,-0.0701,-0.0715,-0.0723,-0.0734,-0.0748,-0.076,-0.0777,-0.0791,-0.0809,-0.0825,-0.0831,-0.0837,-0.0835,-0.0835,-0.0837,-0.0843,-0.084,-0.083,-0.083,-0.083,-0.083,-0.083,-0.083,-0.0642,-0.0652,-0.0661,-0.0676,-0.0687,-0.07,-0.0708,-0.0719,-0.073,-0.0747,-0.0759,-0.077,-0.0786,-0.0803,-0.0817,-0.0822,-0.0828,-0.0824,-0.0831,-0.0836,-0.0837,-0.0838,-0.0836,-0.0825,-0.0825,-0.0825,-0.0825,-0.0825]},{"header":{"parameterUnit":"m.s-1","parameterCategory":1,"la1":30.2991,"la2":30.254,"lo1":-89.0895,"lo2":-89.0444,"dy":0.0017,"dx":0.0017,"nx":28,"ny":28,"refTime":"2025-04-21T21:00:00:Z","depth":0,"parameterNumber":3,"parameterNumberName":"V-component_of_WINDS"},"data":[0,0,0,0,0,0,0,0,0,0,0,0,0,0,0,0,0,0,0,0,0,0,0,0,0,0,0,0,0,0,0,0,0,0,0,0,0,0,0,0,0,0,0,0,0,0,0,0,0,0,0,0,0,0,0,0,0,0,0.7247,0.7247,0,0.7246,0.7246,0.7246,0.7228,0.7227,0.7227,0.7226,0.7225,0.7226,0.7226,0,0,0,0,0,0,0,0,0,0,0,0,0,0.7232,0.7232,0.7247,0.7247,0.7247,0.7246,0.7246,0.7246,0.7228,0.7227,0.7226,0.7226,0.7225,0.7226,0.7226,0,0,0,0,0,0,0,0,0,0,0,0,0,0.7236,0.7233,0.7247,0.7238,0.7237,0.7246,0.7246,0.7246,0.7228,0.7227,0.7226,0.7226,0.7225,0.7226,0.7226,0.7245,0,0,0.7228,0.7229,0,0,0,0,0,0,0,0,0.7235,0.7236,0.7239,0.7238,0.7237,0.7236,0.7241,0.7246,0.7228,0.7231,0.7226,0.7225,0.723,0.723,0.7231,0.7245,0.7245,0.7228,0.7229,0.7229,0.7229,0,0,0,0,0,0,0,0.7235,0.7236,0.7247,0.7239,0.7238,0.7233,0.7233,0.7241,0.7234,0.7231,0.7229,0.723,0.7229,0.7231,0.7231,0.7245,0.7228,0.7229,0.7229,0.723,0.7273,0.7273,0,0,0,0,0,0,0.7236,0.7236,0.7247,0.7247,0.7235,0.7234,0.7234,0.7237,0.7234,0.7233,0.723,0.7229,0.723,0.723,0.7231,0.7252,0.7229,0.723,0.723,0.7272,0.7273,0.7274,0,0,0,0,0,0,0.7236,0.7237,0.7247,0.7241,0.7242,0.7235,0.7239,0.7238,0.7239,0.7234,0.7232,0.7233,0.7229,0.723,0.7241,0.7252,0.723,0.7231,0.7271,0.7272,0.7273,0.7295,0,0,0,0,0,0,0.7236,0.7237,0.7245,0.7241,0.7242,0.7257,0.724,0.7238,0.724,0.7239,0.7236,0.7235,0.7229,0.7241,0.7242,0.7252,0.7231,0.727,0.7271,0.7273,0.7293,0.7296,0.7299,0,0,0,0,0,0.7235,0.7251,0.7245,0.7246,0.7251,0.7258,0.7258,0.7251,0.7241,0.7248,0.7245,0.7235,0.725,0.7242,0.7243,0.7254,0.7269,0.7271,0.7273,0.7292,0.7296,0.7299,0,0,0,0,0,0,0.7256,0.725,0.7244,0.7259,0.7259,0.7255,0.7263,0.7255,0.7258,0.7256,0.7247,0.7246,0.7259,0.7258,0.7248,0.7271,0.7258,0.726,0.7272,0.7276,0.7279,0.7279,0.7232,0,0,0,0,0,0.7262,0.7268,0.7263,0.7276,0.7277,0.727,0.7273,0.7267,0.7267,0.7267,0.7264,0.7264,0.7269,0.7272,0.7276,0.7292,0.7292,0.73,0.7304,0.7306,0.7308,0.7316,0.732,0.7279,0.7279,0.7279,0,0,0.7275,0.7273,0.7277,0.728,0.728,0.7286,0.727,0.7278,0.7283,0.7268,0.7278,0.7276,0.7276,0.7289,0.7295,0.7289,0.7319,0.7308,0.7311,0.7311,0.7319,0.7323,0.7326,0.728,0.728,0.728,0,0,0.7302,0.7301,0.7312,0.7311,0.7311,0.7306,0.7309,0.7305,0.7303,0.7314,0.7303,0.7308,0.7316,0.7316,0.7317,0.7344,0.7335,0.7345,0.7362,0.737,0.7373,0.7376,0.7385,0.7389,0.7347,0.7347,0.7347,0,0.7318,0.7328,0.7319,0.7327,0.7329,0.7315,0.7326,0.7326,0.7327,0.7328,0.7321,0.733,0.7329,0.7343,0.7349,0.735,0.7353,0.7346,0.7373,0.7376,0.7379,0.7387,0.7391,0.7348,0.7348,0.7348,0.7348,0,0.7347,0.7354,0.7363,0.7364,0.7366,0.7376,0.7368,0.7372,0.7366,0.7362,0.7372,0.737,0.7373,0.7376,0.737,0.7388,0.7384,0.7375,0.7362,0.7384,0.7392,0.7395,0.735,0.735,0.7349,0.7349,0,0,0.7388,0.7383,0.7387,0.7387,0.7384,0.7389,0.7398,0.7401,0.7404,0.7405,0.7412,0.7419,0.7411,0.7412,0.7405,0.7413,0.7433,0.7403,0.7402,0.7408,0.7454,0.7461,0.7465,0.7427,0.7428,0.7428,0.7454,0,0.7414,0.7429,0.7421,0.7437,0.7443,0.7429,0.7437,0.7436,0.7433,0.7437,0.7433,0.7438,0.7426,0.7427,0.7433,0.7429,0.7442,0.7427,0.7434,0.7434,0.7435,0.7469,0.7476,0.75,0.7457,0.7457,0.7458,0,0.7447,0.7449,0.7465,0.7461,0.7463,0.7471,0.7472,0.7477,0.7475,0.7472,0.7473,0.7465,0.7473,0.746,0.7471,0.7461,0.7463,0.7461,0.7462,0.7463,0.7448,0.7471,0.7508,0.7511,0.7462,0.7462,0.7462,0,0.7475,0.7482,0.7492,0.7492,0.7488,0.7493,0.7492,0.749,0.7492,0.7493,0.7495,0.7497,0.7499,0.7501,0.7493,0.7484,0.7505,0.7491,0.7503,0.7503,0.7508,0.7508,0.7547,0.7509,0.7509,0.7509,0.7509,0,0.7505,0.7516,0.7505,0.7511,0.7523,0.7513,0.7524,0.7521,0.7519,0.7525,0.7514,0.7519,0.7509,0.7513,0.7507,0.7517,0.7518,0.7516,0.7514,0.7517,0.7517,0.7519,0.7517,0.751,0.751,0.751,0.7509,0,0.7539,0.7532,0.7543,0.7537,0.7536,0.7545,0.754,0.7546,0.7541,0.7548,0.755,0.7542,0.7547,0.7539,0.7543,0.7539,0.7553,0.7549,0.7553,0.7552,0.7565,0.7564,0.7605,0.761,0.757,0.757,0.757,0,0.7559,0.7567,0.7562,0.7565,0.7564,0.7569,0.7571,0.7561,0.7564,0.7563,0.7568,0.7572,0.7574,0.7582,0.7577,0.758,0.7576,0.759,0.7576,0.7579,0.7576,0.7576,0.7577,0.7593,0.7594,0.7594,0.7594,0,0.7596,0.7592,0.7595,0.7596,0.7599,0.76,0.76,0.7603,0.7593,0.7596,0.76,0.7602,0.7606,0.7609,0.7611,0.7609,0.76,0.7599,0.7602,0.7605,0.7607,0.7606,0.7562,0.7598,0.7598,0.7597,0.7597,0.7597,0.7623,0.763,0.7627,0.7631,0.763,0.763,0.7635,0.763,0.7634,0.7636,0.763,0.7636,0.7634,0.7634,0.7634,0.7638,0.7632,0.7636,0.7637,0.7638,0.764,0.7606,0.7638,0.7638,0.7638,0.7638,0.7638,0,0.766,0.7657,0.766,0.7661,0.7664,0.7654,0.7654,0.7657,0.7662,0.7661,0.7663,0.7668,0.7671,0.7666,0.7668,0.7673,0.7669,0.7674,0.7674,0.7673,0.7646,0.7643,0.7677,0.7677,0.7677,0.7677,0.7677,0.7677,0.7679,0.7689,0.7684,0.7693,0.769,0.7696,0.7696,0.7696,0.7695,0.7701,0.7703,0.77,0.7697,0.7699,0.7701,0.77,0.7701,0.7708,0.7705,0.7679,0.7675,0.7672,0.7669,0.7708,0.7708,0.7732,0.7732,0.7733]}]]